date,time,SUV Intensity [MED/Hr],UV Index,Daily total [MED],Since Last [MED]
24/09/2022,00:01:00,0.000,0.0,0.0,0.0
24/09/2022,00:02:00,0.000,0.0,0.0,0.0
24/09/2022,00:03:00,0.000,0.0,0.0,0.0
24/09/2022,00:04:08,-0.000,0.0,0.0,0.0
24/09/2022,00:05:00,0.001,0.0,0.0,0.0
24/09/2022,00:06:00,-0.000,0.0,0.0,0.0
24/09/2022,00:07:00,0.000,0.0,0.0,0.0
24/09/2022,00:08:00,0.000,0.0,0.0,0.0
24/09/2022,00:08:59,0.000,0.0,0.0,0.0
24/09/2022,00:09:59,0.000,0.0,0.0,0.0
24/09/2022,00:11:08,0.002,0.0,0.0,0.0
24/09/2022,00:12:00,0.001,0.0,0.0,0.0
24/09/2022,00:13:00,-0.000,0.0,0.0,0.0
24/09/2022,00:13:59,0.000,0.0,0.0,0.0
24/09/2022,00:15:00,0.001,0.0,0.0,0.0
24/09/2022,00:16:00,0.000,0.0,0.0,0.0
24/09/2022,00:17:08,0.000,0.0,0.0,0.0
24/09/2022,00:18:00,0.000,0.0,0.0,0.0
24/09/2022,00:19:00,0.000,0.0,0.0,0.0
24/09/2022,00:20:00,0.000,0.0,0.0,0.0
24/09/2022,00:21:00,0.001,0.0,0.0,0.0
24/09/2022,00:22:00,0.001,0.0,0.0,0.0
24/09/2022,00:23:08,0.000,0.0,0.0,0.0
24/09/2022,00:23:59,0.000,0.0,0.0,0.0
24/09/2022,00:25:00,-0.001,0.0,0.0,0.0
24/09/2022,00:26:08,0.000,0.0,0.0,0.0
24/09/2022,00:26:59,0.000,0.0,0.0,0.0
24/09/2022,00:27:59,0.001,0.0,0.0,0.0
24/09/2022,00:29:00,0.000,0.0,0.0,0.0
24/09/2022,00:29:59,0.000,0.0,0.0,0.0
24/09/2022,00:30:59,-0.001,0.0,0.0,0.0
24/09/2022,00:32:00,0.000,0.0,0.0,0.0
24/09/2022,00:33:00,0.001,0.0,0.0,0.0
24/09/2022,00:34:00,0.000,0.0,0.0,0.0
24/09/2022,00:35:00,0.000,0.0,0.0,0.0
24/09/2022,00:36:00,-0.001,0.0,0.0,0.0
24/09/2022,00:37:00,-0.000,0.0,0.0,0.0
24/09/2022,00:38:00,0.001,0.0,0.0,0.0
24/09/2022,00:39:00,0.000,0.0,0.0,0.0
24/09/2022,00:40:01,0.000,0.0,0.0,0.0
24/09/2022,00:41:00,0.000,0.0,0.0,0.0
24/09/2022,00:42:00,0.000,0.0,0.0,0.0
24/09/2022,00:43:00,0.000,0.0,0.0,0.0
24/09/2022,00:43:59,-0.000,0.0,0.0,0.0
24/09/2022,00:45:00,0.000,0.0,0.0,0.0
24/09/2022,00:45:59,0.000,0.0,0.0,0.0
24/09/2022,00:46:59,0.000,0.0,0.0,0.0
24/09/2022,00:48:00,0.001,0.0,0.0,0.0
24/09/2022,00:49:00,0.000,0.0,0.0,0.0
24/09/2022,00:50:00,0.001,0.0,0.0,0.0
24/09/2022,00:50:59,0.001,0.0,0.0,0.0
24/09/2022,00:52:00,0.000,0.0,0.0,0.0
24/09/2022,00:53:00,0.000,0.0,0.0,0.0
24/09/2022,00:54:08,-0.001,0.0,0.0,0.0
24/09/2022,00:54:58,-0.000,0.0,0.0,0.0
24/09/2022,00:55:59,-0.001,0.0,0.0,0.0
24/09/2022,00:57:00,0.000,0.0,0.0,0.0
24/09/2022,00:58:08,0.001,0.0,0.0,0.0
24/09/2022,00:58:59,0.001,0.0,0.0,0.0
24/09/2022,00:59:59,0.000,0.0,0.0,0.0
24/09/2022,01:01:00,0.000,0.0,0.0,0.0
24/09/2022,01:01:59,0.000,0.0,0.0,0.0
24/09/2022,01:02:59,-0.000,0.0,0.0,0.0
24/09/2022,01:04:00,0.000,0.0,0.0,0.0
24/09/2022,01:04:59,0.000,0.0,0.0,0.0
24/09/2022,01:06:00,0.001,0.0,0.0,0.0
24/09/2022,01:07:00,0.000,0.0,0.0,0.0
24/09/2022,01:08:00,-0.000,0.0,0.0,0.0
24/09/2022,01:08:59,0.000,0.0,0.0,0.0
24/09/2022,01:10:00,-0.000,0.0,0.0,0.0
24/09/2022,01:11:00,0.001,0.0,0.0,0.0
24/09/2022,01:12:00,0.000,0.0,0.0,0.0
24/09/2022,01:13:00,-0.001,0.0,0.0,0.0
24/09/2022,01:14:00,0.001,0.0,0.0,0.0
24/09/2022,01:14:59,0.000,0.0,0.0,0.0
24/09/2022,01:16:00,0.000,0.0,0.0,0.0
24/09/2022,01:16:59,-0.000,0.0,0.0,0.0
24/09/2022,01:17:59,0.001,0.0,0.0,0.0
24/09/2022,01:19:00,-0.001,0.0,0.0,0.0
24/09/2022,01:20:00,0.001,0.0,0.0,0.0
24/09/2022,01:20:59,0.000,0.0,0.0,0.0
24/09/2022,01:22:25,0.001,0.0,0.0,0.0
24/09/2022,01:24:00,0.000,0.0,0.0,0.0
24/09/2022,01:25:08,-0.001,0.0,0.0,0.0
24/09/2022,01:25:59,0.001,0.0,0.0,0.0
24/09/2022,01:27:00,-0.001,0.0,0.0,0.0
24/09/2022,01:27:59,0.000,0.0,0.0,0.0
24/09/2022,01:28:59,0.000,0.0,0.0,0.0
24/09/2022,01:30:00,0.000,0.0,0.0,0.0
24/09/2022,01:30:59,0.000,0.0,0.0,0.0
24/09/2022,01:32:01,-0.001,0.0,0.0,0.0
24/09/2022,01:32:59,0.001,0.0,0.0,0.0
24/09/2022,01:33:59,-0.000,0.0,0.0,0.0
24/09/2022,01:35:08,0.000,0.0,0.0,0.0
24/09/2022,01:36:00,0.000,0.0,0.0,0.0
24/09/2022,01:37:02,0.001,0.0,0.0,0.0
24/09/2022,01:37:59,0.000,0.0,0.0,0.0
24/09/2022,01:38:59,0.001,0.0,0.0,0.0
24/09/2022,01:40:00,0.001,0.0,0.0,0.0
24/09/2022,01:41:00,0.000,0.0,0.0,0.0
24/09/2022,01:42:00,0.001,0.0,0.0,0.0
24/09/2022,01:43:00,0.000,0.0,0.0,0.0
24/09/2022,01:44:01,0.000,0.0,0.0,0.0
24/09/2022,01:45:00,0.001,0.0,0.0,0.0
24/09/2022,01:46:00,0.001,0.0,0.0,0.0
24/09/2022,01:46:59,0.000,0.0,0.0,0.0
24/09/2022,01:48:00,-0.001,0.0,0.0,0.0
24/09/2022,01:49:00,0.000,0.0,0.0,0.0
24/09/2022,01:50:00,0.000,0.0,0.0,0.0
24/09/2022,01:51:01,0.001,0.0,0.0,0.0
24/09/2022,01:52:00,0.001,0.0,0.0,0.0
24/09/2022,01:53:08,0.001,0.0,0.0,0.0
24/09/2022,01:53:59,0.000,0.0,0.0,0.0
24/09/2022,01:54:52,0.001,0.0,0.0,0.0
24/09/2022,01:56:01,0.001,0.0,0.0,0.0
24/09/2022,01:56:59,0.000,0.0,0.0,0.0
24/09/2022,01:57:59,0.001,0.0,0.0,0.0
24/09/2022,01:58:59,0.001,0.0,0.0,0.0
24/09/2022,01:59:59,0.000,0.0,0.0,0.0
24/09/2022,02:01:00,-0.000,0.0,0.0,0.0
24/09/2022,02:02:00,-0.001,0.0,0.0,0.0
24/09/2022,02:03:08,0.000,0.0,0.0,0.0
24/09/2022,02:03:59,-0.001,0.0,0.0,0.0
24/09/2022,02:05:00,0.000,0.0,0.0,0.0
24/09/2022,02:06:08,0.001,0.0,0.0,0.0
24/09/2022,02:07:00,0.000,0.0,0.0,0.0
24/09/2022,02:08:01,-0.000,0.0,0.0,0.0
24/09/2022,02:09:00,0.000,0.0,0.0,0.0
24/09/2022,02:10:00,0.000,0.0,0.0,0.0
24/09/2022,02:11:00,0.001,0.0,0.0,0.0
24/09/2022,02:11:59,-0.001,0.0,0.0,0.0
24/09/2022,02:13:00,0.001,0.0,0.0,0.0
24/09/2022,02:13:59,0.000,0.0,0.0,0.0
24/09/2022,02:14:59,0.000,0.0,0.0,0.0
24/09/2022,02:16:00,0.001,0.0,0.0,0.0
24/09/2022,02:16:59,0.001,0.0,0.0,0.0
24/09/2022,02:18:08,-0.000,0.0,0.0,0.0
24/09/2022,02:19:00,0.000,0.0,0.0,0.0
24/09/2022,02:20:00,0.000,0.0,0.0,0.0
24/09/2022,02:21:00,-0.000,0.0,0.0,0.0
24/09/2022,02:22:00,0.000,0.0,0.0,0.0
24/09/2022,02:23:00,0.000,0.0,0.0,0.0
24/09/2022,02:24:08,0.001,0.0,0.0,0.0
24/09/2022,02:25:00,-0.001,0.0,0.0,0.0
24/09/2022,02:26:00,0.000,0.0,0.0,0.0
24/09/2022,02:27:00,0.001,0.0,0.0,0.0
24/09/2022,02:28:00,0.000,0.0,0.0,0.0
24/09/2022,02:29:00,0.001,0.0,0.0,0.0
24/09/2022,02:30:00,0.000,0.0,0.0,0.0
24/09/2022,02:31:08,0.000,0.0,0.0,0.0
24/09/2022,02:31:51,0.001,0.0,0.0,0.0
24/09/2022,02:33:00,0.000,0.0,0.0,0.0
24/09/2022,02:33:59,0.001,0.0,0.0,0.0
24/09/2022,02:35:00,0.000,0.0,0.0,0.0
24/09/2022,02:35:59,0.000,0.0,0.0,0.0
24/09/2022,02:36:59,0.001,0.0,0.0,0.0
24/09/2022,02:38:00,-0.000,0.0,0.0,0.0
24/09/2022,02:38:59,0.001,0.0,0.0,0.0
24/09/2022,02:39:59,0.001,0.0,0.0,0.0
24/09/2022,02:41:00,-0.000,0.0,0.0,0.0
24/09/2022,02:42:00,0.001,0.0,0.0,0.0
24/09/2022,02:43:00,0.000,0.0,0.0,0.0
24/09/2022,02:44:00,0.000,0.0,0.0,0.0
24/09/2022,02:45:00,0.001,0.0,0.0,0.0
24/09/2022,02:45:59,0.000,0.0,0.0,0.0
24/09/2022,02:47:00,0.001,0.0,0.0,0.0
24/09/2022,02:48:00,0.002,0.0,0.0,0.0
24/09/2022,02:49:00,-0.001,0.0,0.0,0.0
24/09/2022,02:50:00,0.000,0.0,0.0,0.0
24/09/2022,02:50:59,0.001,0.0,0.0,0.0
24/09/2022,02:51:59,0.002,0.0,0.0,0.0
24/09/2022,02:53:01,0.001,0.0,0.0,0.0
24/09/2022,02:54:00,-0.000,0.0,0.0,0.0
24/09/2022,02:54:59,0.000,0.0,0.0,0.0
24/09/2022,02:56:00,0.001,0.0,0.0,0.0
24/09/2022,02:57:00,0.001,0.0,0.0,0.0
24/09/2022,02:58:00,0.000,0.0,0.0,0.0
24/09/2022,02:59:08,0.001,0.0,0.0,0.0
24/09/2022,02:59:59,-0.001,0.0,0.0,0.0
24/09/2022,03:01:00,0.001,0.0,0.0,0.0
24/09/2022,03:02:00,-0.000,0.0,0.0,0.0
24/09/2022,03:03:00,0.001,0.0,0.0,0.0
24/09/2022,03:04:00,0.001,0.0,0.0,0.0
24/09/2022,03:05:00,0.001,0.0,0.0,0.0
24/09/2022,03:06:00,0.002,0.0,0.0,0.0
24/09/2022,03:07:00,0.001,0.0,0.0,0.0
24/09/2022,03:08:00,0.000,0.0,0.0,0.0
24/09/2022,03:09:08,0.001,0.0,0.0,0.0
24/09/2022,03:10:00,0.001,0.0,0.0,0.0
24/09/2022,03:11:00,0.001,0.0,0.0,0.0
24/09/2022,03:12:08,0.000,0.0,0.0,0.0
24/09/2022,03:13:00,0.000,0.0,0.0,0.0
24/09/2022,03:14:00,0.002,0.0,0.0,0.0
24/09/2022,03:15:00,0.001,0.0,0.0,0.0
24/09/2022,03:16:16,0.001,0.0,0.0,0.0
24/09/2022,03:18:01,0.002,0.0,0.0,0.0
24/09/2022,03:18:59,0.001,0.0,0.0,0.0
24/09/2022,03:20:00,0.001,0.0,0.0,0.0
24/09/2022,03:21:00,0.000,0.0,0.0,0.0
24/09/2022,03:22:00,0.000,0.0,0.0,0.0
24/09/2022,03:23:00,0.001,0.0,0.0,0.0
24/09/2022,03:24:00,0.001,0.0,0.0,0.0
24/09/2022,03:25:00,0.001,0.0,0.0,0.0
24/09/2022,03:25:59,0.001,0.0,0.0,0.0
24/09/2022,03:27:00,0.001,0.0,0.0,0.0
24/09/2022,03:28:00,0.001,0.0,0.0,0.0
24/09/2022,03:29:00,0.001,0.0,0.0,0.0
24/09/2022,03:30:00,0.001,0.0,0.0,0.0
24/09/2022,03:31:00,0.001,0.0,0.0,0.0
24/09/2022,03:32:00,0.002,0.0,0.0,0.0
24/09/2022,03:33:00,0.001,0.0,0.0,0.0
24/09/2022,03:34:00,0.001,0.0,0.0,0.0
24/09/2022,03:35:00,0.001,0.0,0.0,0.0
24/09/2022,03:36:00,0.001,0.0,0.0,0.0
24/09/2022,03:37:08,0.001,0.0,0.0,0.0
24/09/2022,03:38:00,0.001,0.0,0.0,0.0
24/09/2022,03:39:00,0.002,0.0,0.0,0.0
24/09/2022,03:40:00,0.001,0.0,0.0,0.0
24/09/2022,03:41:00,0.000,0.0,0.0,0.0
24/09/2022,03:42:00,0.000,0.0,0.0,0.0
24/09/2022,03:43:00,0.001,0.0,0.0,0.0
24/09/2022,03:44:00,0.002,0.0,0.0,0.0
24/09/2022,03:45:00,0.001,0.0,0.0,0.0
24/09/2022,03:46:00,0.001,0.0,0.0,0.0
24/09/2022,03:47:00,0.001,0.0,0.0,0.0
24/09/2022,03:48:00,0.001,0.0,0.0,0.0
24/09/2022,03:49:02,0.001,0.0,0.0,0.0
24/09/2022,03:50:09,0.001,0.0,0.0,0.0
24/09/2022,03:51:00,0.001,0.0,0.0,0.0
24/09/2022,03:52:00,0.000,0.0,0.0,0.0
24/09/2022,03:53:00,0.001,0.0,0.0,0.0
24/09/2022,03:54:00,0.001,0.0,0.0,0.0
24/09/2022,03:55:00,0.001,0.0,0.0,0.0
24/09/2022,03:56:00,0.000,0.0,0.0,0.0
24/09/2022,03:57:00,0.001,0.0,0.0,0.0
24/09/2022,03:58:00,0.001,0.0,0.0,0.0
24/09/2022,03:59:00,0.001,0.0,0.0,0.0
24/09/2022,04:00:00,0.001,0.0,0.0,0.0
24/09/2022,04:01:00,0.000,0.0,0.0,0.0
24/09/2022,04:02:00,-0.000,0.0,0.0,0.0
24/09/2022,04:03:00,-0.000,0.0,0.0,0.0
24/09/2022,04:04:00,0.001,0.0,0.0,0.0
24/09/2022,04:05:08,0.001,0.0,0.0,0.0
24/09/2022,04:06:00,0.001,0.0,0.0,0.0
24/09/2022,04:07:00,0.001,0.0,0.0,0.0
24/09/2022,04:08:00,0.002,0.0,0.0,0.0
24/09/2022,04:09:00,0.001,0.0,0.0,0.0
24/09/2022,04:10:01,0.001,0.0,0.0,0.0
24/09/2022,04:11:00,0.002,0.0,0.0,0.0
24/09/2022,04:12:00,0.001,0.0,0.0,0.0
24/09/2022,04:13:00,0.000,0.0,0.0,0.0
24/09/2022,04:14:00,0.001,0.0,0.0,0.0
24/09/2022,04:15:00,-0.000,0.0,0.0,0.0
24/09/2022,04:16:00,0.001,0.0,0.0,0.0
24/09/2022,04:17:00,0.001,0.0,0.0,0.0
24/09/2022,04:18:00,0.001,0.0,0.0,0.0
24/09/2022,04:18:59,0.002,0.0,0.0,0.0
24/09/2022,04:20:00,-0.000,0.0,0.0,0.0
24/09/2022,04:21:09,0.001,0.0,0.0,0.0
24/09/2022,04:22:00,0.001,0.0,0.0,0.0
24/09/2022,04:22:59,0.001,0.0,0.0,0.0
24/09/2022,04:24:00,0.001,0.0,0.0,0.0
24/09/2022,04:25:00,0.001,0.0,0.0,0.0
24/09/2022,04:26:00,0.001,0.0,0.0,0.0
24/09/2022,04:27:00,0.001,0.0,0.0,0.0
24/09/2022,04:28:00,0.002,0.0,0.0,0.0
24/09/2022,04:29:00,0.000,0.0,0.0,0.0
24/09/2022,04:30:00,0.001,0.0,0.0,0.0
24/09/2022,04:31:08,0.001,0.0,0.0,0.0
24/09/2022,04:32:00,0.001,0.0,0.0,0.0
24/09/2022,04:33:00,0.000,0.0,0.0,0.0
24/09/2022,04:34:00,0.001,0.0,0.0,0.0
24/09/2022,04:35:01,0.001,0.0,0.0,0.0
24/09/2022,04:36:00,0.001,0.0,0.0,0.0
24/09/2022,04:37:00,0.001,0.0,0.0,0.0
24/09/2022,04:38:00,0.001,0.0,0.0,0.0
24/09/2022,04:39:00,0.001,0.0,0.0,0.0
24/09/2022,04:40:00,0.001,0.0,0.0,0.0
24/09/2022,04:41:08,0.001,0.0,0.0,0.0
24/09/2022,04:42:00,0.001,0.0,0.0,0.0
24/09/2022,04:43:00,0.001,0.0,0.0,0.0
24/09/2022,04:44:01,0.001,0.0,0.0,0.0
24/09/2022,04:45:00,0.001,0.0,0.0,0.0
24/09/2022,04:46:00,0.001,0.0,0.0,0.0
24/09/2022,04:47:17,0.002,0.0,0.0,0.0
24/09/2022,04:49:01,0.001,0.0,0.0,0.0
24/09/2022,04:50:00,0.001,0.0,0.0,0.0
24/09/2022,04:51:00,0.001,0.0,0.0,0.0
24/09/2022,04:52:00,0.001,0.0,0.0,0.0
24/09/2022,04:53:00,0.001,0.0,0.0,0.0
24/09/2022,04:54:00,0.001,0.0,0.0,0.0
24/09/2022,04:55:00,0.001,0.0,0.0,0.0
24/09/2022,04:56:08,0.001,0.0,0.0,0.0
24/09/2022,04:57:00,0.001,0.0,0.0,0.0
24/09/2022,04:58:00,0.001,0.0,0.0,0.0
24/09/2022,04:59:00,0.002,0.0,0.0,0.0
24/09/2022,05:00:00,0.001,0.0,0.0,0.0
24/09/2022,05:01:00,0.001,0.0,0.0,0.0
24/09/2022,05:02:00,0.001,0.0,0.0,0.0
24/09/2022,05:03:00,0.002,0.0,0.0,0.0
24/09/2022,05:04:00,0.001,0.0,0.0,0.0
24/09/2022,05:05:00,0.001,0.0,0.0,0.0
24/09/2022,05:06:09,0.001,0.0,0.0,0.0
24/09/2022,05:07:00,0.001,0.0,0.0,0.0
24/09/2022,05:08:00,0.001,0.0,0.0,0.0
24/09/2022,05:09:00,0.001,0.0,0.0,0.0
24/09/2022,05:10:00,0.000,0.0,0.0,0.0
24/09/2022,05:11:00,0.001,0.0,0.0,0.0
24/09/2022,05:12:00,-0.000,0.0,0.0,0.0
24/09/2022,05:13:00,0.001,0.0,0.0,0.0
24/09/2022,05:14:00,0.002,0.0,0.0,0.0
24/09/2022,05:15:00,0.001,0.0,0.0,0.0
24/09/2022,05:16:00,0.001,0.0,0.0,0.0
24/09/2022,05:17:08,0.001,0.0,0.0,0.0
24/09/2022,05:18:00,0.001,0.0,0.0,0.0
24/09/2022,05:19:00,0.001,0.0,0.0,0.0
24/09/2022,05:20:00,0.000,0.0,0.0,0.0
24/09/2022,05:21:00,0.002,0.0,0.0,0.0
24/09/2022,05:22:00,0.001,0.0,0.0,0.0
24/09/2022,05:23:00,0.001,0.0,0.0,0.0
24/09/2022,05:24:01,0.000,0.0,0.0,0.0
24/09/2022,05:25:00,0.000,0.0,0.0,0.0
24/09/2022,05:26:00,0.000,0.0,0.0,0.0
24/09/2022,05:27:00,0.001,0.0,0.0,0.0
24/09/2022,05:28:08,0.001,0.0,0.0,0.0
24/09/2022,05:29:00,0.002,0.0,0.0,0.0
24/09/2022,05:30:00,0.001,0.0,0.0,0.0
24/09/2022,05:31:00,0.001,0.0,0.0,0.0
24/09/2022,05:32:00,0.002,0.0,0.0,0.0
24/09/2022,05:33:00,0.001,0.0,0.0,0.0
24/09/2022,05:34:00,0.002,0.0,0.0,0.0
24/09/2022,05:35:00,0.002,0.0,0.0,0.0
24/09/2022,05:36:00,0.001,0.0,0.0,0.0
24/09/2022,05:37:00,0.000,0.0,0.0,0.0
24/09/2022,05:38:25,0.001,0.0,0.0,0.0
24/09/2022,05:40:00,0.002,0.0,0.0,0.0
24/09/2022,05:41:00,0.000,0.0,0.0,0.0
24/09/2022,05:42:00,0.001,0.0,0.0,0.0
24/09/2022,05:43:01,0.002,0.0,0.0,0.0
24/09/2022,05:44:00,0.002,0.0,0.0,0.0
24/09/2022,05:45:00,0.002,0.0,0.0,0.0
24/09/2022,05:46:00,0.002,0.0,0.0,0.0
24/09/2022,05:47:00,0.002,0.0,0.0,0.0
24/09/2022,05:48:08,0.002,0.0,0.0,0.0
24/09/2022,05:49:00,0.002,0.0,0.0,0.0
24/09/2022,05:50:00,0.003,0.0,0.0,0.0
24/09/2022,05:51:08,0.003,0.0,0.0,0.0
24/09/2022,05:52:00,0.004,0.0,0.0,0.0
24/09/2022,05:53:08,0.002,0.0,0.0,0.0
24/09/2022,05:54:08,0.003,0.0,0.0,0.0
24/09/2022,05:55:00,0.002,0.0,0.0,0.0
24/09/2022,05:56:00,0.003,0.0,0.0,0.0
24/09/2022,05:57:00,0.004,0.0,0.0,0.0
24/09/2022,05:58:00,0.004,0.0,0.0,0.0
24/09/2022,05:59:00,0.004,0.0,0.0,0.0
24/09/2022,06:00:00,0.004,0.0,0.0,0.0
24/09/2022,06:01:00,0.005,0.0,0.0,0.0
24/09/2022,06:02:00,0.005,0.0,0.0,0.0
24/09/2022,06:03:00,0.005,0.0,0.0,0.0
24/09/2022,06:04:08,0.006,0.0,0.0,0.0
24/09/2022,06:05:01,0.006,0.0,0.0,0.0
24/09/2022,06:06:00,0.006,0.0,0.0,0.0
24/09/2022,06:07:00,0.006,0.0,0.0,0.0
24/09/2022,06:08:01,0.007,0.0,0.0,0.0
24/09/2022,06:09:00,0.007,0.0,0.0,0.0
24/09/2022,06:10:00,0.007,0.0,0.0,0.0
24/09/2022,06:11:01,0.008,0.0,0.001,0.001
24/09/2022,06:12:00,0.008,0.0,0.001,0.0
24/09/2022,06:13:00,0.009,0.0,0.001,0.0
24/09/2022,06:14:00,0.009,0.0,0.001,0.0
24/09/2022,06:15:00,0.010,0.0,0.001,0.0
24/09/2022,06:16:00,0.010,0.0,0.001,0.0
24/09/2022,06:17:00,0.011,0.0,0.001,0.0
24/09/2022,06:18:00,0.011,0.0,0.002,0.001
24/09/2022,06:19:01,0.012,0.0,0.002,0.0
24/09/2022,06:20:01,0.012,0.0,0.002,0.0
24/09/2022,06:21:00,0.013,0.0,0.002,0.0
24/09/2022,06:22:00,0.013,0.0,0.002,0.0
24/09/2022,06:23:00,0.013,0.0,0.003,0.001
24/09/2022,06:24:00,0.014,0.0,0.003,0.0
24/09/2022,06:25:00,0.015,0.0,0.003,0.0
24/09/2022,06:26:00,0.016,0.0,0.003,0.0
24/09/2022,06:27:00,0.016,0.0,0.004,0.001
24/09/2022,06:28:00,0.016,0.0,0.004,0.0
24/09/2022,06:29:09,0.017,0.0,0.004,0.0
24/09/2022,06:30:00,0.018,0.0,0.005,0.001
24/09/2022,06:31:00,0.019,0.0,0.005,0.0
24/09/2022,06:32:00,0.019,0.0,0.005,0.0
24/09/2022,06:33:00,0.019,0.0,0.005,0.0
24/09/2022,06:34:01,0.020,0.0,0.006,0.001
24/09/2022,06:35:00,0.021,0.0,0.006,0.0
24/09/2022,06:36:00,0.022,0.0,0.006,0.0
24/09/2022,06:37:00,0.023,0.0,0.007,0.001
24/09/2022,06:38:00,0.024,0.0,0.007,0.0
24/09/2022,06:39:08,0.025,0.0,0.008,0.001
24/09/2022,06:40:00,0.025,0.0,0.008,0.0
24/09/2022,06:41:00,0.027,0.0,0.009,0.001
24/09/2022,06:42:00,0.026,0.0,0.009,0.0
24/09/2022,06:43:00,0.027,0.0,0.009,0.0
24/09/2022,06:44:00,0.030,0.0,0.01,0.001
24/09/2022,06:45:00,0.029,0.0,0.01,0.0
24/09/2022,06:46:00,0.031,0.0,0.011,0.001
24/09/2022,06:47:00,0.032,0.0,0.011,0.0
24/09/2022,06:48:00,0.032,0.0,0.012,0.001
24/09/2022,06:49:08,0.035,0.0,0.013,0.001
24/09/2022,06:50:00,0.035,0.0,0.013,0.0
24/09/2022,06:51:01,0.035,0.0,0.014,0.001
24/09/2022,06:52:00,0.038,0.0,0.014,0.0
24/09/2022,06:53:00,0.038,0.0,0.015,0.001
24/09/2022,06:54:01,0.039,0.0,0.016,0.001
24/09/2022,06:55:00,0.040,0.0,0.016,0.0
24/09/2022,06:56:00,0.041,0.0,0.017,0.001
24/09/2022,06:57:01,0.042,0.0,0.018,0.001
24/09/2022,06:58:00,0.044,0.0,0.018,0.0
24/09/2022,06:59:00,0.045,0.0,0.019,0.001
24/09/2022,07:00:01,0.047,0.0,0.02,0.001
24/09/2022,07:01:00,0.048,0.0,0.021,0.001
24/09/2022,07:02:09,0.049,0.0,0.022,0.001
24/09/2022,07:03:00,0.051,0.0,0.022,0.0
24/09/2022,07:04:00,0.051,0.0,0.023,0.001
24/09/2022,07:05:00,0.053,0.0,0.024,0.001
24/09/2022,07:06:01,0.055,0.0,0.025,0.001
24/09/2022,07:07:00,0.056,0.0,0.026,0.001
24/09/2022,07:08:01,0.057,0.0,0.027,0.001
24/09/2022,07:09:13,0.059,0.0,0.028,0.001
24/09/2022,07:11:01,0.061,0.0,0.03,0.002
24/09/2022,07:12:08,0.063,0.0,0.031,0.001
24/09/2022,07:13:00,0.065,0.0,0.032,0.001
24/09/2022,07:14:00,0.067,0.0,0.033,0.001
24/09/2022,07:15:00,0.068,0.0,0.034,0.001
24/09/2022,07:16:00,0.071,0.0,0.035,0.001
24/09/2022,07:17:00,0.071,0.0,0.036,0.001
24/09/2022,07:18:00,0.073,0.0,0.038,0.002
24/09/2022,07:19:00,0.075,0.0,0.039,0.001
24/09/2022,07:20:00,0.077,0.0,0.04,0.001
24/09/2022,07:21:00,0.078,0.0,0.041,0.001
24/09/2022,07:22:00,0.081,0.0,0.043,0.002
24/09/2022,07:23:00,0.082,0.0,0.044,0.001
24/09/2022,07:24:01,0.084,0.0,0.045,0.001
24/09/2022,07:25:09,0.086,0.0,0.047,0.002
24/09/2022,07:26:00,0.088,0.0,0.048,0.001
24/09/2022,07:27:01,0.090,0.0,0.05,0.002
24/09/2022,07:28:09,0.092,0.0,0.052,0.002
24/09/2022,07:29:00,0.094,0.0,0.053,0.001
24/09/2022,07:30:01,0.095,0.0,0.054,0.001
24/09/2022,07:31:00,0.097,0.0,0.056,0.002
24/09/2022,07:32:01,0.099,0.0,0.058,0.002
24/09/2022,07:33:00,0.100,0.0,0.059,0.001
24/09/2022,07:34:01,0.103,0.0,0.061,0.002
24/09/2022,07:35:00,0.105,0.0,0.063,0.002
24/09/2022,07:36:00,0.108,0.0,0.065,0.002
24/09/2022,07:37:00,0.110,0.0,0.066,0.001
24/09/2022,07:38:00,0.112,0.0,0.068,0.002
24/09/2022,07:39:00,0.114,0.0,0.07,0.002
24/09/2022,07:40:00,0.117,0.0,0.072,0.002
24/09/2022,07:41:00,0.119,0.0,0.074,0.002
24/09/2022,07:42:00,0.122,0.0,0.076,0.002
24/09/2022,07:43:00,0.124,0.0,0.078,0.002
24/09/2022,07:44:00,0.126,0.0,0.08,0.002
24/09/2022,07:45:00,0.128,0.0,0.082,0.002
24/09/2022,07:46:00,0.131,0.0,0.084,0.002
24/09/2022,07:47:00,0.133,0.0,0.087,0.003
24/09/2022,07:48:00,0.135,0.0,0.089,0.002
24/09/2022,07:49:00,0.139,0.0,0.091,0.002
24/09/2022,07:50:09,0.143,0.0,0.094,0.003
24/09/2022,07:51:00,0.145,0.0,0.096,0.002
24/09/2022,07:52:01,0.148,0.0,0.098,0.002
24/09/2022,07:53:00,0.152,0.0,0.101,0.003
24/09/2022,07:54:00,0.155,0.0,0.103,0.002
24/09/2022,07:55:01,0.156,0.0,0.106,0.003
24/09/2022,07:56:01,0.160,0.0,0.109,0.003
24/09/2022,07:57:00,0.163,0.0,0.111,0.002
24/09/2022,07:58:02,0.166,0.0,0.114,0.003
24/09/2022,07:59:01,0.169,0.0,0.117,0.003
24/09/2022,08:00:00,0.171,0.0,0.12,0.003
24/09/2022,08:01:00,0.175,0.0,0.123,0.003
24/09/2022,08:02:00,0.177,0.0,0.126,0.003
24/09/2022,08:03:09,0.181,0.0,0.129,0.003
24/09/2022,08:04:01,0.184,0.0,0.132,0.003
24/09/2022,08:05:00,0.189,0.0,0.135,0.003
24/09/2022,08:06:01,0.192,0.0,0.138,0.003
24/09/2022,08:07:00,0.195,0.0,0.141,0.003
24/09/2022,08:08:00,0.198,0.0,0.144,0.003
24/09/2022,08:09:00,0.203,0.0,0.148,0.004
24/09/2022,08:10:00,0.206,0.0,0.151,0.003
24/09/2022,08:11:01,0.210,0.0,0.155,0.004
24/09/2022,08:12:00,0.212,0.0,0.158,0.003
24/09/2022,08:13:09,0.218,1.0,0.162,0.004
24/09/2022,08:14:00,0.221,1.0,0.165,0.003
24/09/2022,08:15:01,0.224,1.0,0.169,0.004
24/09/2022,08:16:08,0.228,1.0,0.173,0.004
24/09/2022,08:17:00,0.232,1.0,0.177,0.004
24/09/2022,08:18:00,0.236,1.0,0.18,0.003
24/09/2022,08:19:00,0.238,1.0,0.184,0.004
24/09/2022,08:20:00,0.243,1.0,0.188,0.004
24/09/2022,08:21:01,0.247,1.0,0.193,0.005
24/09/2022,08:22:01,0.250,1.0,0.197,0.004
24/09/2022,08:23:00,0.252,1.0,0.201,0.004
24/09/2022,08:24:01,0.257,1.0,0.205,0.004
24/09/2022,08:25:00,0.262,1.0,0.209,0.004
24/09/2022,08:26:01,0.267,1.0,0.214,0.005
24/09/2022,08:27:00,0.271,1.0,0.218,0.004
24/09/2022,08:28:00,0.274,1.0,0.223,0.005
24/09/2022,08:29:08,0.279,1.0,0.228,0.005
24/09/2022,08:30:00,0.282,1.0,0.232,0.004
24/09/2022,08:31:00,0.285,1.0,0.237,0.005
24/09/2022,08:32:08,0.290,1.0,0.242,0.005
24/09/2022,08:33:01,0.293,1.0,0.247,0.005
24/09/2022,08:34:01,0.295,1.0,0.251,0.004
24/09/2022,08:35:08,0.298,1.0,0.257,0.006
24/09/2022,08:36:00,0.301,1.0,0.261,0.004
24/09/2022,08:37:00,0.305,1.0,0.266,0.005
24/09/2022,08:38:00,0.311,1.0,0.272,0.006
24/09/2022,08:39:00,0.315,1.0,0.277,0.005
24/09/2022,08:40:01,0.322,1.0,0.282,0.005
24/09/2022,08:41:00,0.329,1.0,0.288,0.006
24/09/2022,08:42:00,0.333,1.0,0.293,0.005
24/09/2022,08:43:00,0.337,1.0,0.299,0.006
24/09/2022,08:44:01,0.340,1.0,0.304,0.005
24/09/2022,08:45:08,0.345,1.0,0.311,0.007
24/09/2022,08:46:00,0.351,1.0,0.316,0.005
24/09/2022,08:47:01,0.352,1.0,0.322,0.006
24/09/2022,08:48:00,0.356,1.0,0.328,0.006
24/09/2022,08:49:00,0.362,1.0,0.334,0.006
24/09/2022,08:50:00,0.365,1.0,0.34,0.006
24/09/2022,08:51:00,0.371,1.0,0.346,0.006
24/09/2022,08:52:01,0.376,1.0,0.352,0.006
24/09/2022,08:53:00,0.380,1.0,0.358,0.006
24/09/2022,08:54:00,0.385,1.0,0.365,0.007
24/09/2022,08:55:00,0.390,1.0,0.371,0.006
24/09/2022,08:56:00,0.398,1.0,0.378,0.007
24/09/2022,08:57:00,0.401,1.0,0.384,0.006
24/09/2022,08:58:01,0.405,1.0,0.391,0.007
24/09/2022,08:59:00,0.409,1.0,0.398,0.007
24/09/2022,09:00:00,0.412,1.0,0.405,0.007
24/09/2022,09:01:00,0.417,1.0,0.412,0.007
24/09/2022,09:02:01,0.422,1.0,0.419,0.007
24/09/2022,09:03:00,0.427,1.0,0.426,0.007
24/09/2022,09:04:00,0.432,1.0,0.433,0.007
24/09/2022,09:05:00,0.435,1.0,0.44,0.007
24/09/2022,09:06:00,0.439,1.0,0.447,0.007
24/09/2022,09:07:00,0.444,1.0,0.455,0.008
24/09/2022,09:08:00,0.451,1.0,0.462,0.007
24/09/2022,09:09:01,0.455,1.0,0.47,0.008
24/09/2022,09:10:09,0.461,1.0,0.478,0.008
24/09/2022,09:11:01,0.465,1.0,0.485,0.007
24/09/2022,09:12:00,0.470,1.0,0.493,0.008
24/09/2022,09:13:00,0.475,1.0,0.501,0.008
24/09/2022,09:14:00,0.481,1.0,0.509,0.008
24/09/2022,09:15:00,0.486,1.0,0.517,0.008
24/09/2022,09:16:01,0.489,1.0,0.525,0.008
24/09/2022,09:17:00,0.490,1.0,0.533,0.008
24/09/2022,09:18:04,0.490,1.0,0.542,0.009
24/09/2022,09:19:00,0.496,1.0,0.549,0.007
24/09/2022,09:20:09,0.497,1.0,0.559,0.01
24/09/2022,09:21:00,0.501,1.0,0.566,0.007
24/09/2022,09:22:00,0.508,1.0,0.574,0.008
24/09/2022,09:23:00,0.511,1.0,0.583,0.009
24/09/2022,09:24:00,0.519,1.0,0.591,0.008
24/09/2022,09:25:01,0.527,1.0,0.6,0.009
24/09/2022,09:26:00,0.534,1.0,0.609,0.009
24/09/2022,09:27:01,0.542,1.0,0.618,0.009
24/09/2022,09:28:00,0.544,1.0,0.627,0.009
24/09/2022,09:29:00,0.547,1.0,0.636,0.009
24/09/2022,09:30:00,0.553,1.0,0.645,0.009
24/09/2022,09:31:00,0.565,1.0,0.655,0.01
24/09/2022,09:32:01,0.574,1.0,0.664,0.009
24/09/2022,09:33:09,0.577,1.0,0.675,0.011
24/09/2022,09:34:00,0.578,1.0,0.683,0.008
24/09/2022,09:35:00,0.574,1.0,0.693,0.01
24/09/2022,09:36:09,0.578,1.0,0.704,0.011
24/09/2022,09:37:01,0.583,1.0,0.712,0.008
24/09/2022,09:38:01,0.589,1.0,0.722,0.01
24/09/2022,09:39:00,0.588,1.0,0.732,0.01
24/09/2022,09:40:00,0.595,1.0,0.742,0.01
24/09/2022,09:41:01,0.601,1.0,0.752,0.01
24/09/2022,09:42:01,0.604,1.0,0.762,0.01
24/09/2022,09:43:01,0.604,1.0,0.772,0.01
24/09/2022,09:44:00,0.593,1.0,0.782,0.01
24/09/2022,09:45:00,0.619,1.0,0.792,0.01
24/09/2022,09:46:01,0.639,1.0,0.802,0.01
24/09/2022,09:47:00,0.648,1.0,0.813,0.011
24/09/2022,09:48:00,0.654,2.0,0.824,0.011
24/09/2022,09:49:09,0.658,2.0,0.836,0.012
24/09/2022,09:50:00,0.662,2.0,0.846,0.01
24/09/2022,09:51:09,0.670,2.0,0.858,0.012
24/09/2022,09:52:01,0.676,2.0,0.868,0.01
24/09/2022,09:53:01,0.682,2.0,0.879,0.011
24/09/2022,09:54:00,0.681,2.0,0.891,0.012
24/09/2022,09:55:00,0.687,2.0,0.902,0.011
24/09/2022,09:56:01,0.694,2.0,0.914,0.012
24/09/2022,09:57:01,0.703,2.0,0.925,0.011
24/09/2022,09:58:00,0.709,2.0,0.937,0.012
24/09/2022,09:59:00,0.714,2.0,0.949,0.012
24/09/2022,10:00:00,0.721,2.0,0.961,0.012
24/09/2022,10:01:09,0.710,2.0,0.974,0.013
24/09/2022,10:02:00,0.703,2.0,0.985,0.011
24/09/2022,10:03:00,0.714,2.0,0.996,0.011
24/09/2022,10:04:09,0.653,2.0,1.01,0.014
24/09/2022,10:05:00,0.625,1.0,1.019,0.009
24/09/2022,10:06:01,0.603,1.0,1.029,0.01
24/09/2022,10:07:08,0.592,1.0,1.041,0.012
24/09/2022,10:08:01,0.594,1.0,1.049,0.008
24/09/2022,10:09:00,0.583,1.0,1.059,0.01
24/09/2022,10:10:01,0.672,2.0,1.07,0.011